Weather History for Long Beach, CA

Change the Weather History Date:

Friday, January 18, 2013

  Actual Average Record
Temperature  
Mean Temperature 64 °F 57 °F  
Max Temperature 80 °F 68 °F 89 °F (1971)
Min Temperature 48 °F 46 °F 34 °F (2001)
Degree Days  
Heating Degree Days 1 8  
Month to date heating degree days 217 152  
Since 1 July heating degree days 554 572  
Cooling Degree Days 0 0  
Month to date cooling degree days 0 0  
Year to date cooling degree days 0 0  
Growing Degree Days 14 (Base 50)    
Moisture  
Dew Point 28 °F    
Average Humidity 31    
Maximum Humidity 50    
Minimum Humidity 12    
Precipitation  
Precipitation 0.00 in 0.09 in 1.20 in (1993)
Month to date precipitation 0.06 1.56  
Year to date precipitation 0.06 1.56  
Since 1 July precipitation 3.86 5.38  
Sea Level Pressure  
Sea Level Pressure 30.09 in    
Wind  
Wind Speed 5 mph (NW)    
Max Wind Speed 16 mph    
Max Gust Speed 20 mph    
Visibility 10 miles    
Events      
T = Trace of Precipitation, MM = Missing Value Source: NWS Daily Summary

Daily Weather History Graph

Daily Weather History Graph

Search for Another Location

Airport:

Trip Planner

Search our weather history database for the weather conditions in past years. The results will help you decide how hot, cold, wet, or windy it might be!

Date:

Astronomy

Jan. 18, 2013 Rise Set
Actual Time 6:56 AM PST 5:10 PM PST
Civil Twilight 6:29 AM PST 5:37 PM PST
Nautical Twilight 5:59 AM PST 6:07 PM PST
Astronomical Twilight 5:29 AM PST 6:37 PM PST
Moon 11:01 AM PST (1/18) No Moon Set
Length of Visible Light 11h 07m
Length of Day
10h 13m
Waxing Crescent, 48% of the Moon is Illuminated
Jan 18
Waxing Crescent
Jan 18
First Quarter
Jan 26
Full
Feb 3
Last Quarter
Feb 9
New

Hourly Weather History & Observations

Time (PST) Temp. Dew Point Humidity Pressure Visibility Wind Dir Wind Speed Gust Speed Precip Events Conditions
12:53 AM 53.1 °F 26.1 °F 35% 30.13 in 10.0 mi WNW 4.6 mph - N/A   Clear
1:53 AM 52.0 °F 25.0 °F 35% 30.13 in 10.0 mi NW 3.5 mph - N/A   Clear
2:53 AM 51.1 °F 24.1 °F 35% 30.11 in 10.0 mi NW 5.8 mph - N/A   Clear
3:53 AM 51.1 °F 24.1 °F 35% 30.11 in 10.0 mi WNW 4.6 mph - N/A   Clear
4:53 AM 50.0 °F 24.1 °F 36% 30.10 in 10.0 mi NW 4.6 mph - N/A   Clear
5:53 AM 50.0 °F 24.1 °F 36% 30.11 in 10.0 mi NW 3.5 mph - N/A   Clear
6:53 AM 50.0 °F 24.1 °F 36% 30.12 in 10.0 mi WNW 3.5 mph - N/A   Scattered Clouds
7:53 AM 51.1 °F 26.1 °F 38% 30.12 in 10.0 mi WNW 3.5 mph - N/A   Scattered Clouds
8:53 AM 59.0 °F 30.0 °F 33% 30.14 in 10.0 mi NNW 4.6 mph - N/A   Clear
9:53 AM 68.0 °F 30.0 °F 24% 30.14 in 10.0 mi North 8.1 mph - N/A   Clear
10:53 AM 73.0 °F 28.9 °F 20% 30.12 in 10.0 mi North 8.1 mph - N/A   Clear
11:53 AM 78.1 °F 24.1 °F 14% 30.08 in 10.0 mi NE 13.8 mph - N/A   Clear
12:53 PM 80.1 °F 23.0 °F 12% 30.05 in 10.0 mi ENE 10.4 mph - N/A   Scattered Clouds
1:53 PM 80.1 °F 25.0 °F 13% 30.04 in 10.0 mi Calm Calm - N/A   Clear
2:53 PM 79.0 °F 27.0 °F 15% 30.04 in 10.0 mi SSW 5.8 mph - N/A   Clear
3:53 PM 77.0 °F 27.0 °F 16% 30.04 in 10.0 mi SSW 3.5 mph - N/A   Clear
4:53 PM 72.0 °F 28.9 °F 20% 30.05 in 10.0 mi WNW 8.1 mph - N/A   Clear
5:53 PM 66.0 °F 30.9 °F 27% 30.06 in 10.0 mi WNW 4.6 mph - N/A   Clear
6:53 PM 62.1 °F 33.1 °F 34% 30.07 in 10.0 mi WNW 6.9 mph - N/A   Clear
7:53 PM 59.0 °F 33.1 °F 38% 30.08 in 10.0 mi Calm Calm - N/A   Clear
8:53 PM 55.9 °F 33.1 °F 42% 30.09 in 10.0 mi Calm Calm - N/A   Clear
9:53 PM 54.0 °F 35.1 °F 49% 30.10 in 10.0 mi Calm Calm - N/A   Clear
10:53 PM 53.1 °F 35.1 °F 50% 30.11 in 10.0 mi Calm Calm - N/A   Clear
11:53 PM 50.0 °F 35.1 °F 57% 30.10 in 10.0 mi Calm Calm - N/A   Clear